GW4915 Weather Reports


time (UTC)temp
F
wind
direction
speed
knots
gust
knots
rain 1hr
in
rain 24hr
in
rain mn
in
humidity
%
barometer
mb
20260506134649 51 280 0.9 1.7 0.00 0.00 0.00 63 1011.5
20260506134145 52 323 4.3 5.2 0.00 0.00 0.00 63 1011.5
20260506133643 51 290 1.7 2.6 0.00 0.00 0.00 65 1011.6
20260506133139 50 281 2.6 2.6 0.00 0.00 0.00 65 1011.6
20260506132637 51 310 4.3 5.2 0.00 0.00 0.00 65 1011.6
20260506132133 50 355 2.6 2.6 0.00 0.00 0.00 66 1011.4
20260506131631 50 346 2.6 2.6 0.00 0.00 0.00 67 1011.3
20260506131127 50 266 0.0 0.0 0.00 0.00 0.00 68 1011.1
20260506130624 50 2 2.6 2.6 0.00 0.00 0.00 69 1011.2
20260506130122 50 293 0.9 0.9 0.00 0.00 0.00 69 1011.1
20260506125620 49 255 0.9 0.9 0.00 0.00 0.00 70 1011.0
20260506125117 49 306 2.6 2.6 0.00 0.00 0.00 71 1011.1
20260506124615 49 312 2.6 2.6 0.00 0.00 0.00 71 1011.0
20260506124113 48 304 2.6 4.3 0.00 0.00 0.00 72 1010.9
20260506123610 48 304 1.7 1.7 0.00 0.00 0.00 72 1010.7
20260506123108 48 307 2.6 2.6 0.00 0.00 0.00 72 1010.8
20260506122604 47 316 0.0 0.0 0.00 0.00 0.00 73 1010.7
20260506122103 47 339 2.6 2.6 0.00 0.00 0.00 73 1010.7
20260506121600 47 303 0.9 1.7 0.00 0.00 0.00 72 1010.7
20260506121056 47 334 1.7 1.7 0.00 0.00 0.00 72 1010.5
20260506120554 47 291 0.9 0.9 0.00 0.00 0.00 72 1010.7
20260506120051 47 304 0.9 0.9 0.00 0.00 0.00 72 1010.7
20260506115549 47 323 1.7 2.6 0.00 0.00 0.00 71 1010.6
20260506115048 47 289 0.9 0.9 0.00 0.00 0.00 71 1010.6
20260506114544 47 309 0.9 0.9 0.00 0.00 0.00 71 1010.5
20260506114043 47 289 0.0 0.9 0.00 0.00 0.00 70 1010.5
20260506113540 47 296 0.9 1.7 0.00 0.00 0.00 70 1010.5
20260506113037 46 290 0.0 0.9 0.00 0.00 0.00 70 1010.3
20260506112534 46 314 1.7 2.6 0.00 0.00 0.00 70 1010.3
20260506112031 46 301 0.9 0.9 0.00 0.00 0.00 69 1010.3
20260506111529 46 296 0.0 0.9 0.00 0.00 0.00 69 1010.2
20260506111026 46 291 0.0 0.9 0.00 0.00 0.00 69 1010.1
20260506110524 46 293 0.0 0.9 0.00 0.00 0.00 68 1009.9
20260506110021 46 287 0.0 0.9 0.00 0.00 0.00 68 1010.0
20260506105517 46 294 0.9 0.9 0.00 0.00 0.00 67 1009.6
20260506105014 47 290 0.9 0.9 0.00 0.00 0.00 67 1009.8
20260506104512 47 294 0.0 0.9 0.00 0.00 0.00 66 1009.6
20260506104010 47 289 0.0 0.0 0.00 0.00 0.00 66 1009.4
20260506103507 47 304 1.7 1.7 0.00 0.00 0.00 65 1009.3
20260506103003 47 292 0.0 0.9 0.00 0.00 0.00 65 1009.4
20260506102502 47 313 1.7 1.7 0.00 0.00 0.00 65 1009.3
20260506101959 47 323 1.7 1.7 0.00 0.00 0.00 64 1009.2
20260506101455 48 295 0.9 1.7 0.00 0.00 0.00 64 1009.0
20260506100952 48 300 0.9 0.9 0.00 0.00 0.00 64 1009.3
20260506100451 48 299 0.9 1.7 0.00 0.00 0.00 64 1008.9
20260506095948 48 293 0.9 0.9 0.00 0.00 0.00 63 1009.1
20260506095447 48 282 0.0 0.0 0.00 0.00 0.00 64 1009.3
20260506094942 48 290 0.0 0.9 0.00 0.00 0.00 62 1009.0
20260506094441 48 291 0.0 0.0 0.00 0.00 0.00 63 1008.9
20260506093938 48 284 0.0 0.0 0.00 0.00 0.00 63 1008.7
20260506093437 48 294 0.0 0.0 0.00 0.00 0.00 62 1008.6
20260506092934 48 289 0.0 0.9 0.00 0.00 0.00 62 1008.8
20260506092432 48 302 0.9 0.9 0.00 0.00 0.00 62 1008.9
20260506091928 48 304 0.9 0.9 0.00 0.00 0.00 62 1008.9
20260506091426 48 291 0.0 0.0 0.00 0.00 0.00 61 1008.9
20260506090923 48 287 0.0 0.9 0.00 0.00 0.00 61 1008.8
20260506090421 48 294 1.7 2.6 0.00 0.00 0.00 61 1008.5
20260506085917 48 317 0.9 0.9 0.00 0.00 0.00 61 1008.6
20260506085414 48 290 0.0 0.9 0.00 0.00 0.00 61 1008.6
20260506084910 48 289 0.0 0.0 0.00 0.00 0.00 61 1008.6
20260506084407 48 291 0.0 0.0 0.00 0.00 0.00 60 1008.7
20260506083903 48 288 0.9 1.7 0.00 0.00 0.00 60 1008.8
20260506083401 48 287 0.0 0.9 0.00 0.00 0.00 60 1008.6
20260506082858 48 287 0.9 0.9 0.00 0.00 0.00 60 1008.5
20260506082355 48 306 0.9 0.9 0.00 0.00 0.00 59 1008.3
20260506081851 49 284 0.9 0.9 0.00 0.00 0.00 60 1008.4
20260506081349 48 306 0.9 1.7 0.00 0.00 0.00 59 1008.4
20260506080846 49 305 0.9 0.9 0.00 0.00 0.00 60 1008.5
20260506080343 49 303 1.7 1.7 0.00 0.00 0.00 59 1008.5
20260506073327 49 302 0.9 1.7 0.00 0.00 0.00 59 1008.6
20260506072824 49 292 1.7 1.7 0.00 0.00 0.00 60 1008.6
20260506072321 49 315 0.9 1.7 0.00 0.00 0.00 60 1008.4
20260506071819 49 290 0.9 0.9 0.00 0.00 0.00 60 1008.3
20260506071317 49 292 2.6 2.6 0.00 0.00 0.00 61 1008.4
20260506070814 49 255 0.9 0.9 0.00 0.00 0.00 62 1008.5
20260506070311 49 294 0.9 0.9 0.00 0.00 0.00 62 1008.4
20260506062248 50 275 0.9 0.9 0.00 0.00 0.00 60 1008.7
20260506061743 50 270 0.0 0.9 0.00 0.00 0.00 60 1008.7
20260506061241 50 288 0.0 0.0 0.00 0.00 0.00 60 1008.7
20260506060739 50 269 0.0 0.0 0.00 0.00 0.00 60 1008.8
20260506060237 50 265 0.0 0.9 0.00 0.00 0.00 59 1008.6
20260506051208 50 245 0.9 0.9 0.00 0.00 0.00 56 1008.7
20260506050707 51 264 0.0 0.9 0.00 0.00 0.00 55 1008.8
20260506050203 51 279 0.0 0.0 0.00 0.00 0.00 55 1008.9
20260506044654 51 221 1.7 1.7 0.00 0.00 0.00 55 1008.6
20260506044151 50 270 0.0 0.9 0.00 0.00 0.00 53 1008.6
20260506043648 50 257 0.9 1.7 0.00 0.00 0.00 54 1008.8
20260506043146 50 271 0.9 1.7 0.00 0.00 0.00 55 1008.8
20260506042645 51 269 0.0 0.9 0.00 0.00 0.00 55 1008.7
20260506042143 50 270 0.0 0.0 0.00 0.00 0.00 55 1008.6
20260506041641 50 270 0.0 0.0 0.00 0.00 0.00 56 1008.7
20260506041137 50 274 0.0 0.0 0.00 0.00 0.00 55 1008.5
20260506040635 51 277 0.0 0.0 0.00 0.00 0.00 55 1008.2
20260506040132 51 277 0.0 0.0 0.00 0.00 0.00 54 1008.3
20260506035629 51 278 0.0 0.0 0.00 0.12 0.12 53 1008.2
20260506035125 51 291 0.0 0.0 0.00 0.12 0.12 54 1008.4
20260506034623 51 290 0.0 0.0 0.00 0.12 0.12 54 1008.4
20260506034119 51 284 0.0 0.0 0.00 0.12 0.12 53 1008.6
20260506033617 51 283 0.0 0.0 0.00 0.12 0.12 53 1008.5
20260506033114 51 286 0.0 0.0 0.00 0.12 0.12 53 1008.6
20260506032611 51 293 0.0 0.0 0.00 0.12 0.12 52 1008.6
20260506032108 51 270 0.0 0.0 0.00 0.12 0.12 52 1008.8
20260506031605 51 274 0.0 0.0 0.00 0.12 0.12 52 1008.8
20260506031102 51 269 0.0 0.9 0.00 0.12 0.12 51 1008.6
20260506030600 51 273 0.9 1.7 0.00 0.12 0.12 51 1008.6
20260506030057 51 271 0.0 0.0 0.00 0.12 0.12 51 1008.6
20260506025554 51 273 0.0 0.0 0.00 0.12 0.12 51 1008.5
20260506025050 51 278 0.0 0.0 0.00 0.12 0.12 51 1008.7
20260506024547 52 258 0.0 0.0 0.00 0.12 0.12 52 1008.8
20260506024044 52 272 0.0 0.0 0.00 0.12 0.12 50 1008.7
20260506023539 52 266 0.0 0.9 0.00 0.12 0.12 50 1008.5
20260506023037 52 280 0.0 0.9 0.00 0.12 0.12 50 1008.7
20260506022535 52 282 0.0 0.0 0.00 0.12 0.12 50 1008.5
20260506022032 52 274 0.0 0.0 0.00 0.12 0.12 50 1008.4
20260506021529 52 286 0.0 0.0 0.00 0.12 0.12 49 1008.3
20260506021027 52 292 0.9 1.7 0.00 0.12 0.12 49 1008.5
20260506020524 52 277 0.0 0.9 0.00 0.12 0.12 49 1008.5
20260506020021 52 295 0.9 0.9 0.00 0.12 0.12 48 1008.4
20260506015519 52 280 0.0 0.0 0.00 0.12 0.12 49 1008.2
20260506015015 53 277 0.0 0.0 0.00 0.12 0.12 49 1008.3
20260506014513 53 286 0.9 1.7 0.00 0.12 0.12 48 1008.4
20260506014009 53 277 0.9 0.9 0.00 0.12 0.12 49 1008.2
20260506013507 53 316 2.6 2.6 0.00 0.12 0.12 49 1008.1
20260506013003 53 272 1.7 1.7 0.00 0.12 0.12 50 1007.9
20260506012459 53 276 0.0 0.0 0.00 0.12 0.12 51 1008.0
20260506011956 53 295 0.9 0.9 0.00 0.12 0.12 50 1007.9
20260506011454 53 317 0.9 1.7 0.00 0.12 0.12 50 1007.9
20260506010950 53 284 0.0 0.9 0.00 0.12 0.12 51 1008.0
20260506010449 53 306 0.9 0.9 0.00 0.12 0.12 51 1008.0
20260506005945 53 286 1.7 1.7 0.00 0.12 0.12 52 1007.9
20260506005443 53 288 0.0 0.0 0.00 0.12 0.12 53 1007.9
20260506004938 53 256 0.9 0.9 0.00 0.12 0.12 54 1007.9
20260506004436 53 289 0.9 0.9 0.00 0.12 0.12 53 1007.7
20260506003932 53 291 0.9 0.9 0.00 0.12 0.12 54 1008.0
20260506003429 53 261 0.0 0.9 0.00 0.12 0.12 53 1007.8
20260506002925 53 267 0.0 0.9 0.00 0.12 0.12 52 1007.9
20260506002421 54 268 0.0 0.9 0.00 0.12 0.12 53 1007.9
20260506001917 54 271 0.9 0.9 0.00 0.12 0.12 52 1007.8
20260506001414 54 299 1.7 1.7 0.00 0.12 0.12 53 1007.8
20260506000911 54 286 0.9 0.9 0.00 0.12 0.12 53 1007.4
20260506000409 54 275 0.0 0.0 0.00 0.12 0.12 53 1007.5
20260505235905 54 290 1.7 2.6 0.00 0.12 0.12 53 1007.4
20260505235404 54 323 0.9 1.7 0.00 0.12 0.12 52 1007.3
20260505234900 54 319 0.9 1.7 0.00 0.12 0.12 53 1007.1
20260505234358 54 284 0.9 0.9 0.00 0.12 0.12 52 1007.0
20260505233854 54 264 0.9 0.9 0.00 0.12 0.12 54 1007.1
20260505233352 55 277 1.7 1.7 0.00 0.12 0.12 53 1007.0
20260505232849 55 311 1.7 1.7 0.00 0.12 0.12 52 1007.0
20260505232347 55 324 2.6 4.3 0.00 0.12 0.12 52 1007.0
20260505231843 55 286 2.6 5.2 0.00 0.12 0.12 55 1007.2
20260505231341 55 298 1.7 1.7 0.00 0.12 0.12 57 1007.0
20260505230839 55 317 0.9 0.9 0.00 0.12 0.12 59 1007.0
20260505230336 55 290 3.5 5.2 0.00 0.12 0.12 58 1007.0
20260505225833 55 351 3.5 6.1 0.00 0.12 0.12 59 1007.2
20260505225330 55 284 2.6 2.6 0.00 0.12 0.12 58 1007.0
20260505224825 55 295 1.7 4.3 0.00 0.12 0.12 58 1007.2
20260505224323 55 282 1.7 1.7 0.00 0.12 0.12 59 1007.1
20260505223820 55 279 0.9 0.9 0.00 0.12 0.12 61 1007.2
20260505223317 55 267 0.9 1.7 0.00 0.12 0.12 62 1007.3
20260505222812 55 238 1.7 4.3 0.00 0.12 0.12 64 1007.3
20260505222309 55 308 4.3 5.2 0.00 0.12 0.12 64 1007.1
20260505221806 55 279 0.9 1.7 0.00 0.12 0.12 63 1007.1
20260505221303 55 290 1.7 1.7 0.00 0.12 0.12 63 1007.1
20260505220800 55 258 1.7 1.7 0.00 0.12 0.12 63 1007.0
20260505220257 55 277 2.6 2.6 0.00 0.12 0.12 63 1007.2
20260505215755 56 219 2.6 2.6 0.00 0.12 0.12 63 1007.3
20260505215253 56 270 0.9 1.7 0.00 0.12 0.12 64 1007.2
20260505214750 56 282 1.7 1.7 0.00 0.12 0.12 64 1007.5
20260505214247 56 295 2.6 2.6 0.00 0.12 0.12 64 1007.4
20260505213744 56 277 0.0 0.9 0.00 0.12 0.12 64 1007.3
20260505213242 55 300 1.7 1.7 0.00 0.12 0.12 64 1007.3
20260505212737 55 260 2.6 4.3 0.00 0.12 0.12 64 1007.2
20260505212235 55 318 3.5 4.3 0.00 0.12 0.12 64 1007.2
20260505211732 55 316 3.5 5.2 0.00 0.12 0.12 63 1007.1
20260505211229 55 271 1.7 2.6 0.00 0.12 0.12 64 1007.0
20260505210725 56 300 2.6 2.6 0.00 0.12 0.12 64 1007.2
20260505210222 56 247 2.6 2.6 0.00 0.12 0.12 66 1007.1
20260505205720 55 304 4.3 7.0 0.00 0.12 0.12 65 1007.0
20260505205218 55 327 1.7 2.6 0.00 0.12 0.12 66 1007.2
20260505204714 55 255 3.5 4.3 0.00 0.12 0.12 66 1007.3
20260505204212 56 271 4.3 5.2 0.00 0.12 0.12 66 1007.3
20260505203709 55 288 1.7 1.7 0.00 0.12 0.12 67 1007.3
20260505203206 56 282 4.3 7.0 0.00 0.12 0.12 67 1007.1
20260505202701 55 279 0.0 0.9 0.00 0.12 0.12 68 1007.4
20260505202158 55 275 0.9 1.7 0.00 0.12 0.12 69 1007.5
20260505201654 55 235 3.5 4.3 0.00 0.12 0.12 68 1007.7
20260505201153 55 291 3.5 5.2 0.00 0.12 0.12 68 1007.3
20260505200650 55 259 0.9 1.7 0.00 0.12 0.12 69 1007.4
20260505200147 55 293 1.7 2.6 0.00 0.12 0.12 68 1007.5
20260505195643 55 248 5.2 6.1 0.00 0.12 0.12 68 1007.5
20260505195140 55 208 1.7 2.6 0.00 0.12 0.12 69 1007.5
20260505194637 54 288 2.6 2.6 0.00 0.12 0.12 69 1007.4
20260505194133 54 269 4.3 5.2 0.00 0.12 0.12 69 1007.5
20260505193630 54 228 3.5 4.3 0.00 0.12 0.12 69 1007.4
20260505193127 54 217 2.6 2.6 0.00 0.12 0.12 69 1007.7
20260505192626 54 261 2.6 4.3 0.00 0.12 0.12 70 1007.8
20260505192123 54 258 1.7 2.6 0.00 0.12 0.12 68 1007.5
20260505191621 54 239 2.6 4.3 0.00 0.12 0.12 68 1007.8
20260505191119 54 201 2.6 2.6 0.00 0.12 0.12 69 1007.8
20260505190614 54 222 2.6 5.2 0.00 0.12 0.12 69 1008.0
20260505190109 54 226 1.7 2.6 0.00 0.12 0.12 70 1007.9
20260505185607 54 289 2.6 4.3 0.00 0.12 0.12 69 1007.9
20260505185103 54 185 3.5 5.2 0.00 0.12 0.12 69 1008.0
20260505184559 54 238 5.2 7.0 0.00 0.12 0.12 69 1007.8
20260505184056 54 282 2.6 4.3 0.00 0.12 0.12 70 1007.7
20260505183553 54 227 2.6 2.6 0.00 0.12 0.12 69 1007.5
20260505183051 55 240 2.6 4.3 0.00 0.12 0.12 69 1007.3
20260505182547 55 269 3.5 5.2 0.00 0.12 0.12 70 1007.2
20260505182044 55 274 0.9 0.9 0.00 0.12 0.12 71 1007.3
20260505181540 54 211 2.6 2.6 0.00 0.12 0.12 71 1007.4
20260505181038 54 286 2.6 4.3 0.00 0.12 0.12 72 1007.4
20260505180533 54 248 2.6 5.2 0.00 0.12 0.12 72 1007.2
20260505180032 54 276 0.9 1.7 0.00 0.12 0.12 74 1007.2
20260505175531 54 270 0.0 0.9 0.00 0.12 0.12 73 1007.0
20260505175029 53 253 1.7 2.6 0.00 0.12 0.12 73 1007.2
20260505174526 53 259 2.6 4.3 0.00 0.12 0.12 74 1007.1
20260505174021 53 224 4.3 5.2 0.00 0.12 0.12 74 1007.1
20260505173519 53 239 0.9 1.7 0.00 0.12 0.12 75 1006.9
20260505173015 53 266 1.7 2.6 0.00 0.12 0.12 75 1007.1
20260505172514 53 303 3.5 4.3 0.00 0.12 0.12 75 1007.0
20260505172009 53 278 3.5 4.3 0.00 0.12 0.12 74 1007.1
20260505171505 53 266 3.5 5.2 0.00 0.12 0.12 75 1007.0
20260505171002 53 323 2.6 2.6 0.00 0.12 0.12 76 1007.1
20260505170458 53 313 3.5 4.3 0.00 0.12 0.12 75 1007.0
20260505165954 53 261 1.7 4.3 0.00 0.12 0.12 74 1006.9
20260505165450 53 302 2.6 2.6 0.00 0.12 0.12 75 1007.3
20260505164945 53 319 5.2 7.0 0.00 0.12 0.12 75 1007.3
20260505164442 53 324 4.3 5.2 0.00 0.12 0.12 73 1007.4
20260505163940 54 308 1.7 1.7 0.00 0.12 0.12 72 1007.2
20260505163439 54 289 3.5 5.2 0.00 0.12 0.12 71 1007.0
20260505162937 54 279 4.3 5.2 0.00 0.12 0.12 70 1007.2
20260505162433 55 279 0.9 1.7 0.00 0.12 0.12 70 1007.2
20260505161930 55 252 3.5 6.1 0.00 0.12 0.12 69 1007.2
20260505161426 56 269 4.3 6.1 0.00 0.12 0.12 66 1007.2
20260505160924 57 314 5.2 7.0 0.00 0.12 0.12 63 1006.8
20260505160422 57 243 1.7 2.6 0.00 0.12 0.12 62 1007.0
20260505153356 59 304 3.5 5.2 0.00 0.12 0.12 58 1006.3
20260505152852 59 234 1.7 2.6 0.00 0.12 0.12 56 1006.1
20260505152349 59 306 0.9 1.7 0.00 0.12 0.12 57 1005.8
20260505151849 59 325 1.7 2.6 0.00 0.12 0.12 57 1006.1
20260505151346 59 326 2.6 2.6 0.00 0.12 0.12 54 1006.0
20260505150843 59 295 1.7 1.7 0.00 0.12 0.12 55 1005.5
20260505150340 59 293 1.7 1.7 0.00 0.12 0.12 54 1005.5
20260505140310 62 287 3.5 5.2 0.00 0.12 0.12 63 1005.4